Time,TemperatureF,DewpointF,PressureIn,WindDirection,WindDirectionDegrees,WindSpeedMPH,WindSpeedGustMPH,Humidity,HourlyPrecipIn,Conditions,Clouds,dailyrainin,SolarRadiationWatts/m^2,SoftwareType,DateUTC
2013-03-02 00:00:00,31.5,29.7,29.56,WNW,296,0.0,0.0,93,0.00,CLR,,0.02,0.0,WeatherDisplay:10.37,2013-03-02 05:00:00,
2013-03-02 00:01:00,31.5,30.0,29.56,WNW,296,0.0,0.0,94,0.00,RA,,0.00,0.0,WeatherDisplay:10.37,2013-03-02 05:01:00,
2013-03-02 00:06:00,31.4,29.9,29.56,WNW,296,0.0,0.0,94,0.00,RA,,0.00,0.0,WeatherDisplay:10.37,2013-03-02 05:06:00,
2013-03-02 00:11:00,31.3,29.8,29.56,WNW,296,0.0,0.0,94,0.00,CLR,,0.00,0.0,WeatherDisplay:10.37,2013-03-02 05:11:00,
2013-03-02 00:16:00,31.3,29.8,29.56,WNW,296,0.0,0.0,94,0.00,CLR,,0.00,0.0,WeatherDisplay:10.37,2013-03-02 05:16:00,
2013-03-02 00:21:00,31.3,29.8,29.56,WNW,296,0.0,0.0,94,0.00,CLR,,0.00,0.0,WeatherDisplay:10.37,2013-03-02 05:21:00,
2013-03-02 00:26:00,31.3,29.8,29.56,WNW,296,0.0,0.0,94,0.00,CLR,,0.00,0.0,WeatherDisplay:10.37,2013-03-02 05:26:00,
2013-03-02 00:31:00,31.3,29.8,29.56,WNW,296,0.0,0.0,94,0.00,CLR,,0.00,0.0,WeatherDisplay:10.37,2013-03-02 05:31:00,
2013-03-02 00:36:00,31.2,29.7,29.56,WNW,296,0.0,0.0,94,0.00,CLR,,0.00,0.0,WeatherDisplay:10.37,2013-03-02 05:36:00,
2013-03-02 00:41:00,31.2,29.7,29.56,WNW,296,0.0,0.0,94,0.00,CLR,,0.00,0.0,WeatherDisplay:10.37,2013-03-02 05:41:00,
2013-03-02 00:46:00,31.2,29.7,29.56,WNW,296,0.0,0.0,94,0.00,CLR,,0.00,0.0,WeatherDisplay:10.37,2013-03-02 05:46:00,
2013-03-02 00:51:00,31.2,29.7,29.56,WNW,296,0.0,0.0,94,0.00,CLR,,0.00,0.0,WeatherDisplay:10.37,2013-03-02 05:51:00,
2013-03-02 00:56:00,31.2,29.7,29.56,WNW,296,0.0,0.0,94,0.00,CLR,,0.00,0.0,WeatherDisplay:10.37,2013-03-02 05:56:00,
2013-03-02 01:01:00,31.2,29.7,29.56,WNW,296,0.0,0.0,94,0.00,CLR,,0.00,0.0,WeatherDisplay:10.37,2013-03-02 06:01:00,
2013-03-02 01:06:00,31.2,29.9,29.56,WNW,296,0.0,0.0,95,0.00,CLR,,0.00,0.0,WeatherDisplay:10.37,2013-03-02 06:06:00,
2013-03-02 01:11:00,31.1,29.6,29.56,WNW,296,0.0,0.0,94,0.00,CLR,,0.00,0.0,WeatherDisplay:10.37,2013-03-02 06:11:00,
2013-03-02 01:16:00,31.2,29.7,29.56,WNW,296,0.0,0.0,94,0.00,CLR,,0.00,0.0,WeatherDisplay:10.37,2013-03-02 06:16:00,
2013-03-02 01:21:00,31.2,29.7,29.56,WNW,296,0.0,0.0,94,0.00,CLR,,0.00,0.0,WeatherDisplay:10.37,2013-03-02 06:21:00,
2013-03-02 01:26:00,31.2,29.9,29.56,WNW,296,0.0,0.0,95,0.00,CLR,,0.00,0.0,WeatherDisplay:10.37,2013-03-02 06:26:00,
2013-03-02 01:31:00,31.2,29.9,29.56,WNW,296,0.0,0.0,95,0.00,CLR,,0.00,0.0,WeatherDisplay:10.37,2013-03-02 06:31:00,
2013-03-02 01:36:00,31.4,30.1,29.56,WNW,296,2.3,2.3,95,0.00,CLR,,0.00,0.0,WeatherDisplay:10.37,2013-03-02 06:36:00,
2013-03-02 01:41:00,31.5,30.2,29.56,WNW,296,0.0,0.0,95,0.00,CLR,,0.00,0.0,WeatherDisplay:10.37,2013-03-02 06:41:00,
2013-03-02 01:46:00,31.6,30.3,29.56,WNW,296,3.5,3.5,95,0.00,CLR,,0.00,0.0,WeatherDisplay:10.37,2013-03-02 06:46:00,
2013-03-02 01:51:00,31.9,30.6,29.56,WNW,296,3.5,3.5,95,0.00,CLR,,0.00,0.0,WeatherDisplay:10.37,2013-03-02 06:51:00,
2013-03-02 01:56:00,32.0,30.7,29.56,WNW,296,1.2,0.0,95,0.00,CLR,,0.00,0.0,WeatherDisplay:10.37,2013-03-02 06:56:00,
2013-03-02 02:01:00,32.1,30.8,29.56,WNW,296,2.3,2.3,95,0.00,CLR,,0.00,0.0,WeatherDisplay:10.37,2013-03-02 07:01:00,
2013-03-02 02:06:00,32.2,30.7,29.56,WNW,296,2.0,2.0,94,0.00,CLR,,0.00,0.0,WeatherDisplay:10.37,2013-03-02 07:06:00,
2013-03-02 02:11:00,32.3,30.8,29.56,WNW,296,2.3,2.3,94,0.00,CLR,,0.00,0.0,WeatherDisplay:10.37,2013-03-02 07:11:00,
2013-03-02 02:16:00,32.4,30.9,29.56,WNW,296,2.3,2.3,94,0.00,CLR,,0.00,0.0,WeatherDisplay:10.37,2013-03-02 07:16:00,
2013-03-02 02:21:00,32.4,30.9,29.56,WNW,296,0.0,0.0,94,0.00,CLR,,0.00,0.0,WeatherDisplay:10.37,2013-03-02 07:21:00,
2013-03-02 02:26:00,32.4,30.9,29.56,WNW,296,1.2,0.0,94,0.00,CLR,,0.00,0.0,WeatherDisplay:10.37,2013-03-02 07:26:00,
2013-03-02 02:31:00,32.5,30.7,29.56,WNW,296,3.5,3.5,93,0.00,CLR,,0.00,0.0,WeatherDisplay:10.37,2013-03-02 07:31:00,
2013-03-02 02:36:00,32.5,30.7,29.55,WNW,296,2.3,2.3,93,0.00,CLR,,0.00,0.0,WeatherDisplay:10.37,2013-03-02 07:36:00,
2013-03-02 02:41:00,32.5,30.4,29.55,WNW,296,3.5,3.5,92,0.00,CLR,,0.00,0.0,WeatherDisplay:10.37,2013-03-02 07:41:00,
2013-03-02 02:46:00,32.6,30.5,29.55,WNW,296,0.0,0.0,92,0.00,CLR,,0.00,0.0,WeatherDisplay:10.37,2013-03-02 07:46:00,
2013-03-02 02:51:00,32.6,30.3,29.55,WNW,296,1.2,1.2,91,0.00,CLR,,0.00,0.0,WeatherDisplay:10.37,2013-03-02 07:51:00,
2013-03-02 02:56:00,32.6,30.3,29.55,WNW,295,0.0,0.0,91,0.00,CLR,,0.00,0.0,WeatherDisplay:10.37,2013-03-02 07:56:00,
2013-03-02 03:01:00,32.6,30.3,29.55,WNW,296,0.0,0.0,91,0.00,CLR,,0.00,0.0,WeatherDisplay:10.37,2013-03-02 08:01:00,
2013-03-02 03:06:00,32.6,30.3,29.55,WNW,295,0.0,0.0,91,0.00,CLR,,0.00,0.0,WeatherDisplay:10.37,2013-03-02 08:06:00,
2013-03-02 03:11:00,32.6,30.3,29.55,WNW,296,0.0,0.0,91,0.00,CLR,,0.00,0.0,WeatherDisplay:10.37,2013-03-02 08:11:00,
2013-03-02 03:16:00,32.6,30.3,29.55,WNW,296,0.0,0.0,91,0.00,CLR,,0.00,0.0,WeatherDisplay:10.37,2013-03-02 08:16:00,
2013-03-02 03:21:00,32.6,30.3,29.55,WNW,296,0.0,0.0,91,0.00,CLR,,0.00,0.0,WeatherDisplay:10.37,2013-03-02 08:21:00,
2013-03-02 03:26:00,32.5,30.2,29.55,WNW,296,0.0,0.0,91,0.00,CLR,,0.00,0.0,WeatherDisplay:10.37,2013-03-02 08:26:00,
2013-03-02 03:31:00,32.4,30.1,29.55,WNW,296,1.2,1.2,91,0.00,CLR,,0.00,0.0,WeatherDisplay:10.37,2013-03-02 08:31:00,
2013-03-02 03:36:00,32.4,29.8,29.54,WNW,296,0.0,0.0,90,0.00,CLR,,0.00,0.0,WeatherDisplay:10.37,2013-03-02 08:36:00,
2013-03-02 03:41:00,32.3,29.7,29.54,WNW,296,3.5,3.5,90,0.00,CLR,,0.00,0.0,WeatherDisplay:10.37,2013-03-02 08:41:00,
2013-03-02 03:46:00,32.3,29.4,29.54,WNW,296,1.2,0.0,89,0.00,CLR,,0.00,0.0,WeatherDisplay:10.37,2013-03-02 08:46:00,
2013-03-02 03:51:00,32.3,29.4,29.54,WNW,295,1.2,1.2,89,0.00,CLR,,0.00,0.0,WeatherDisplay:10.37,2013-03-02 08:51:00,
2013-03-02 03:56:00,32.3,29.1,29.54,WNW,296,1.2,0.0,88,0.00,CLR,,0.00,0.0,WeatherDisplay:10.37,2013-03-02 08:56:00,
2013-03-02 04:01:00,32.3,29.1,29.54,WNW,296,0.0,0.0,88,0.00,CLR,,0.00,0.0,WeatherDisplay:10.37,2013-03-02 09:01:00,
2013-03-02 04:06:00,32.4,29.2,29.54,WNW,296,0.0,0.0,88,0.00,CLR,,0.00,0.0,WeatherDisplay:10.37,2013-03-02 09:06:00,
2013-03-02 04:11:00,32.4,29.2,29.54,WNW,295,0.0,0.0,88,0.00,CLR,,0.00,0.0,WeatherDisplay:10.37,2013-03-02 09:11:00,
2013-03-02 04:16:00,32.3,29.1,29.54,WNW,296,0.0,0.0,88,0.00,CLR,,0.00,0.0,WeatherDisplay:10.37,2013-03-02 09:16:00,
2013-03-02 04:21:00,32.3,29.1,29.54,WNW,295,0.0,0.0,88,0.00,CLR,,0.00,0.0,WeatherDisplay:10.37,2013-03-02 09:21:00,
2013-03-02 04:26:00,32.2,29.0,29.54,WNW,295,0.0,0.0,88,0.00,CLR,,0.00,0.0,WeatherDisplay:10.37,2013-03-02 09:26:00,
2013-03-02 04:31:00,32.1,28.9,29.54,WNW,296,0.0,0.0,88,0.00,CLR,,0.00,0.0,WeatherDisplay:10.37,2013-03-02 09:31:00,
2013-03-02 04:36:00,32.1,29.2,29.54,WNW,295,0.0,0.0,89,0.00,CLR,,0.00,0.0,WeatherDisplay:10.37,2013-03-02 09:36:00,
2013-03-02 04:41:00,32.0,29.1,29.54,WNW,295,0.0,0.0,89,0.00,CLR,,0.00,0.0,WeatherDisplay:10.37,2013-03-02 09:41:00,
2013-03-02 04:46:00,31.9,29.0,29.54,WNW,296,0.0,0.0,89,0.00,CLR,,0.00,0.0,WeatherDisplay:10.37,2013-03-02 09:46:00,
2013-03-02 04:51:00,31.8,29.2,29.54,WNW,296,0.0,0.0,90,0.00,CLR,,0.00,0.0,WeatherDisplay:10.37,2013-03-02 09:51:00,
2013-03-02 04:56:00,31.7,29.1,29.54,WNW,296,0.0,0.0,90,0.00,CLR,,0.00,0.0,WeatherDisplay:10.37,2013-03-02 09:56:00,
2013-03-02 05:01:00,31.7,29.1,29.54,WNW,296,0.0,0.0,90,0.00,CLR,,0.00,0.0,WeatherDisplay:10.37,2013-03-02 10:01:00,
2013-03-02 05:06:00,31.6,29.0,29.54,WNW,295,0.0,0.0,90,0.00,CLR,,0.00,0.0,WeatherDisplay:10.37,2013-03-02 10:06:00,
2013-03-02 05:11:00,31.6,29.0,29.54,WNW,296,0.0,0.0,90,0.00,CLR,,0.00,0.0,WeatherDisplay:10.37,2013-03-02 10:11:00,
2013-03-02 05:16:00,31.5,29.2,29.54,WNW,296,1.0,1.0,91,0.00,CLR,,0.00,0.0,WeatherDisplay:10.37,2013-03-02 10:16:00,
2013-03-02 05:21:00,31.5,29.2,29.54,WNW,295,0.0,0.0,91,0.00,CLR,,0.00,0.0,WeatherDisplay:10.37,2013-03-02 10:21:00,
2013-03-02 05:26:00,31.5,29.2,29.54,WNW,296,0.0,0.0,91,0.00,CLR,,0.00,0.0,WeatherDisplay:10.37,2013-03-02 10:26:00,
2013-03-02 05:31:00,31.5,29.2,29.54,WNW,296,0.0,0.0,91,0.00,CLR,,0.00,0.0,WeatherDisplay:10.37,2013-03-02 10:31:00,
2013-03-02 05:36:00,31.4,29.1,29.54,WNW,296,0.0,0.0,91,0.00,CLR,,0.00,0.0,WeatherDisplay:10.37,2013-03-02 10:36:00,
2013-03-02 05:42:00,31.4,29.1,29.54,WNW,296,3.5,3.5,91,0.00,CLR,,0.00,0.0,WeatherDisplay:10.37,2013-03-02 10:42:00,
2013-03-02 05:47:00,31.5,29.2,29.54,WNW,295,0.0,0.0,91,0.00,CLR,,0.00,0.0,WeatherDisplay:10.37,2013-03-02 10:47:00,
2013-03-02 05:52:00,31.5,29.2,29.54,WNW,296,2.3,2.3,91,0.00,CLR,,0.00,0.0,WeatherDisplay:10.37,2013-03-02 10:52:00,
2013-03-02 05:57:00,31.4,29.1,29.54,WNW,296,0.0,0.0,91,0.00,CLR,,0.00,0.0,WeatherDisplay:10.37,2013-03-02 10:57:00,
2013-03-02 06:02:00,31.3,29.0,29.54,WNW,296,1.2,1.2,91,0.00,CLR,,0.00,0.0,WeatherDisplay:10.37,2013-03-02 11:02:00,
2013-03-02 06:07:00,31.3,29.2,29.54,WNW,295,0.0,0.0,92,0.00,CLR,,0.00,0.0,WeatherDisplay:10.37,2013-03-02 11:07:00,
2013-03-02 06:12:00,31.4,29.3,29.54,WNW,296,1.2,1.2,92,0.00,CLR,,0.00,0.0,WeatherDisplay:10.37,2013-03-02 11:12:00,
2013-03-02 06:17:00,31.4,29.3,29.54,WNW,295,1.2,1.2,92,0.00,CLR,,0.00,0.0,WeatherDisplay:10.37,2013-03-02 11:17:00,
2013-03-02 06:22:00,31.4,29.3,29.54,WNW,296,0.0,0.0,92,0.00,CLR,,0.00,0.0,WeatherDisplay:10.37,2013-03-02 11:22:00,
2013-03-02 06:27:00,31.5,29.4,29.54,WNW,295,0.0,0.0,92,0.00,SCT,,0.00,5.0,WeatherDisplay:10.37,2013-03-02 11:27:00,
2013-03-02 06:32:00,31.5,29.4,29.54,WNW,295,1.0,1.0,92,0.00,BKN,,0.00,7.0,WeatherDisplay:10.37,2013-03-02 11:32:00,
2013-03-02 06:37:00,31.6,29.5,29.55,WNW,296,0.0,0.0,92,0.00,BKN,,0.00,11.0,WeatherDisplay:10.37,2013-03-02 11:37:00,
2013-03-02 06:42:00,31.6,29.5,29.55,WNW,295,0.0,0.0,92,0.00,BKN,,0.00,14.0,WeatherDisplay:10.37,2013-03-02 11:42:00,
2013-03-02 06:47:00,31.6,29.5,29.55,WNW,296,1.2,1.2,92,0.00,BKN,,0.00,18.0,WeatherDisplay:10.37,2013-03-02 11:47:00,
2013-03-02 06:52:00,31.8,29.7,29.55,WNW,295,0.0,0.0,92,0.00,BKN,,0.00,23.0,WeatherDisplay:10.37,2013-03-02 11:52:00,
2013-03-02 06:57:00,31.8,29.5,29.55,WNW,295,0.0,0.0,91,0.00,BKN,,0.00,26.0,WeatherDisplay:10.37,2013-03-02 11:57:00,
2013-03-02 07:02:00,31.9,29.6,29.55,WNW,296,0.0,0.0,91,0.00,BKN,,0.00,28.0,WeatherDisplay:10.37,2013-03-02 12:02:00,
2013-03-02 07:07:00,32.0,29.7,29.55,WNW,295,0.0,0.0,91,0.00,BKN,,0.00,32.0,WeatherDisplay:10.37,2013-03-02 12:07:00,
2013-03-02 07:12:00,32.1,29.8,29.55,WNW,295,0.0,0.0,91,0.00,BKN,,0.00,44.0,WeatherDisplay:10.37,2013-03-02 12:12:00,
2013-03-02 07:17:00,32.2,29.9,29.55,WNW,295,0.0,0.0,91,0.00,SCT,,0.00,62.0,WeatherDisplay:10.37,2013-03-02 12:17:00,
2013-03-02 07:22:00,32.4,30.1,29.56,WNW,295,1.2,1.2,91,0.00,SCT,,0.00,72.0,WeatherDisplay:10.37,2013-03-02 12:22:00,
2013-03-02 07:27:00,32.6,30.5,29.56,WNW,295,2.3,2.3,92,0.00,SCT,,0.00,83.0,WeatherDisplay:10.37,2013-03-02 12:27:00,
2013-03-02 07:32:00,33.0,30.1,29.56,WNW,297,2.3,2.3,89,0.00,SCT,,0.00,88.0,WeatherDisplay:10.37,2013-03-02 12:32:00,
2013-03-02 07:37:00,33.4,29.9,29.56,West,259,7.0,7.0,87,0.00,SCT,,0.00,100.0,WeatherDisplay:10.37,2013-03-02 12:37:00,
2013-03-02 07:42:00,34.1,29.8,29.56,West,281,9.0,9.0,84,0.00,SCT,,0.00,118.0,WeatherDisplay:10.37,2013-03-02 12:42:00,
2013-03-02 07:47:00,34.5,29.3,29.56,WNW,290,11.5,11.5,81,0.00,FEW,,0.00,142.0,WeatherDisplay:10.37,2013-03-02 12:47:00,
2013-03-02 07:52:00,35.0,29.1,29.56,WNW,296,9.2,9.2,79,0.00,SCT,,0.00,146.0,WeatherDisplay:10.37,2013-03-02 12:52:00,
2013-03-02 07:57:00,35.2,29.0,29.56,WNW,294,11.5,11.5,78,0.00,SCT,,0.00,153.0,WeatherDisplay:10.37,2013-03-02 12:57:00,
2013-03-02 08:02:00,35.5,28.7,29.56,WNW,288,11.5,11.5,76,0.00,FEW,,0.00,207.0,WeatherDisplay:10.37,2013-03-02 13:02:00,
2013-03-02 08:07:00,35.8,28.6,29.56,WNW,291,10.0,10.0,75,0.00,CLR,,0.00,251.0,WeatherDisplay:10.37,2013-03-02 13:07:00,
2013-03-02 08:12:00,36.0,28.5,29.56,West,281,9.2,9.2,74,0.00,CLR,,0.00,297.0,WeatherDisplay:10.37,2013-03-02 13:12:00,
2013-03-02 08:17:00,36.2,28.4,29.56,WNW,296,5.8,5.8,73,0.00,CLR,,0.00,345.0,WeatherDisplay:10.37,2013-03-02 13:17:00,
2013-03-02 08:22:00,36.5,28.7,29.55,WNW,290,11.5,11.5,73,0.00,CLR,,0.00,362.0,WeatherDisplay:10.37,2013-03-02 13:22:00,
2013-03-02 08:27:00,36.8,28.6,29.55,WNW,301,11.5,11.5,72,0.00,CLR,,0.00,404.0,WeatherDisplay:10.37,2013-03-02 13:27:00,
2013-03-02 08:32:00,36.8,28.6,29.55,WNW,300,10.4,10.4,72,0.00,CLR,,0.00,425.0,WeatherDisplay:10.37,2013-03-02 13:32:00,
2013-03-02 08:37:00,37.1,28.6,29.55,WNW,299,12.7,12.7,71,0.00,CLR,,0.00,436.0,WeatherDisplay:10.37,2013-03-02 13:37:00,
2013-03-02 08:42:00,37.4,28.5,29.55,NW,310,9.2,9.2,70,0.00,CLR,,0.00,503.0,WeatherDisplay:10.37,2013-03-02 13:42:00,
2013-03-02 08:47:00,37.4,28.5,29.55,NW,307,15.0,15.0,70,0.00,CLR,,0.00,304.0,WeatherDisplay:10.37,2013-03-02 13:47:00,
2013-03-02 08:52:00,37.3,28.4,29.55,NW,309,15.0,15.0,70,0.00,CLR,,0.00,374.0,WeatherDisplay:10.37,2013-03-02 13:52:00,
2013-03-02 08:57:00,37.3,28.4,29.55,NW,312,11.5,11.5,70,0.00,FEW,,0.00,295.0,WeatherDisplay:10.37,2013-03-02 13:57:00,
2013-03-02 09:02:00,37.4,28.5,29.55,WNW,283,15.0,15.0,70,0.00,SCT,,0.00,276.0,WeatherDisplay:10.37,2013-03-02 14:02:00,
2013-03-02 09:07:00,37.4,28.5,29.55,NW,307,10.4,10.4,70,0.00,CLR,,0.00,401.0,WeatherDisplay:10.37,2013-03-02 14:07:00,
2013-03-02 09:12:00,37.5,28.6,29.55,West,277,13.0,13.0,70,0.00,SCT,,0.00,260.0,WeatherDisplay:10.37,2013-03-02 14:12:00,
2013-03-02 09:17:00,37.5,28.6,29.55,WNW,298,13.0,13.0,70,0.00,SCT,,0.00,274.0,WeatherDisplay:10.37,2013-03-02 14:17:00,
2013-03-02 09:22:00,37.7,28.8,29.55,WNW,295,12.7,12.7,70,0.00,SCT,,0.00,265.0,WeatherDisplay:10.37,2013-03-02 14:22:00,
2013-03-02 09:27:00,37.7,28.8,29.55,WNW,302,13.8,13.8,70,0.00,SCT,,0.00,269.0,WeatherDisplay:10.37,2013-03-02 14:27:00,
2013-03-02 09:32:00,37.7,28.8,29.55,WNW,294,18.0,18.0,70,0.00,SCT,,0.00,313.0,WeatherDisplay:10.37,2013-03-02 14:32:00,
2013-03-02 09:37:00,37.8,28.9,29.55,WNW,298,11.5,11.5,70,0.00,SCT,,0.00,299.0,WeatherDisplay:10.37,2013-03-02 14:37:00,
2013-03-02 09:42:00,37.7,28.8,29.55,WNW,284,13.8,13.8,70,0.00,SCT,,0.00,322.0,WeatherDisplay:10.37,2013-03-02 14:42:00,
2013-03-02 09:47:00,37.9,29.0,29.55,WNW,303,14.0,14.0,70,0.00,FEW,,0.00,336.0,WeatherDisplay:10.37,2013-03-02 14:47:00,
2013-03-02 09:52:00,37.9,29.0,29.55,WNW,302,12.0,12.0,70,0.00,SCT,,0.00,359.0,WeatherDisplay:10.37,2013-03-02 14:52:00,
2013-03-02 09:57:00,37.8,28.9,29.55,NW,313,15.0,15.0,70,0.00,FEW,,0.00,473.0,WeatherDisplay:10.37,2013-03-02 14:57:00,
2013-03-02 10:02:00,38.0,29.1,29.55,NW,308,15.0,15.0,70,0.00,SCT,,0.00,346.0,WeatherDisplay:10.37,2013-03-02 15:02:00,
2013-03-02 10:07:00,38.0,29.1,29.55,NW,323,12.7,12.7,70,0.00,FEW,,0.00,420.0,WeatherDisplay:10.37,2013-03-02 15:07:00,
2013-03-02 10:12:00,37.9,29.3,29.55,WNW,288,12.0,12.0,71,0.00,SCT,,0.00,290.0,WeatherDisplay:10.37,2013-03-02 15:12:00,
2013-03-02 10:17:00,37.8,29.2,29.55,WNW,299,15.0,15.0,71,0.00,BKN,,0.00,278.0,WeatherDisplay:10.37,2013-03-02 15:17:00,
2013-03-02 10:22:00,37.8,29.2,29.55,NW,304,9.2,9.2,71,0.00,SCT,,0.00,315.0,WeatherDisplay:10.37,2013-03-02 15:22:00,
2013-03-02 10:27:00,37.8,28.9,29.55,WNW,286,11.5,11.5,70,0.00,SCT,,0.00,301.0,WeatherDisplay:10.37,2013-03-02 15:27:00,
2013-03-02 10:32:00,37.9,29.3,29.55,NW,314,10.0,10.0,71,0.00,SCT,,0.00,341.0,WeatherDisplay:10.37,2013-03-02 15:32:00,
2013-03-02 10:37:00,37.9,29.3,29.56,NNW,340,9.2,9.2,71,0.00,SCT,,0.00,316.0,WeatherDisplay:10.37,2013-03-02 15:37:00,
2013-03-02 10:42:00,37.9,29.0,29.56,NW,325,16.1,16.1,70,0.00,BKN,,0.00,285.0,WeatherDisplay:10.37,2013-03-02 15:42:00,
2013-03-02 10:47:00,37.9,29.0,29.56,WNW,298,5.8,5.8,70,0.00,BKN,,0.00,276.0,WeatherDisplay:10.37,2013-03-02 15:47:00,
2013-03-02 10:52:00,37.9,29.0,29.55,NNW,327,18.4,18.4,70,0.00,BKN,,0.00,288.0,WeatherDisplay:10.37,2013-03-02 15:52:00,
2013-03-02 10:57:00,37.9,29.0,29.55,WNW,283,12.7,12.7,70,0.00,SCT,,0.00,309.0,WeatherDisplay:10.37,2013-03-02 15:57:00,
2013-03-02 11:02:00,37.9,29.0,29.55,WNW,292,12.7,12.7,70,0.00,SCT,,0.00,350.0,WeatherDisplay:10.37,2013-03-02 16:02:00,
2013-03-02 11:07:00,37.8,28.9,29.55,West,272,16.1,16.1,70,0.00,BKN,,0.00,276.0,WeatherDisplay:10.37,2013-03-02 16:07:00,
2013-03-02 11:12:00,37.7,29.1,29.55,WNW,287,17.3,17.3,71,0.00,BKN,,0.00,253.0,WeatherDisplay:10.37,2013-03-02 16:12:00,
2013-03-02 11:17:00,37.6,29.4,29.55,NW,306,14.0,14.0,72,0.00,BKN,,0.00,244.0,WeatherDisplay:10.37,2013-03-02 16:17:00,
2013-03-02 11:22:00,37.6,29.0,29.56,WNW,294,13.8,13.8,71,0.00,BKN,,0.00,299.0,WeatherDisplay:10.37,2013-03-02 16:22:00,
2013-03-02 11:28:00,38.0,29.1,29.56,West,273,13.8,13.8,70,0.00,SCT,,0.00,336.0,WeatherDisplay:10.37,2013-03-02 16:28:00,
2013-03-02 11:33:00,38.0,29.1,29.56,NW,315,11.5,11.5,70,0.00,SCT,,0.00,394.0,WeatherDisplay:10.37,2013-03-02 16:33:00,
2013-03-02 11:38:00,38.0,29.1,29.55,WNW,302,18.4,18.4,70,0.00,SCT,,0.00,378.0,WeatherDisplay:10.37,2013-03-02 16:38:00,
2013-03-02 11:43:00,38.0,29.1,29.55,WNW,284,13.8,13.8,70,0.00,BKN,,0.00,316.0,WeatherDisplay:10.37,2013-03-02 16:43:00,
2013-03-02 11:48:00,38.0,29.1,29.55,WNW,297,15.0,15.0,70,0.00,BKN,,0.00,276.0,WeatherDisplay:10.37,2013-03-02 16:48:00,
2013-03-02 11:53:00,38.0,29.4,29.54,WNW,293,9.2,9.2,71,0.00,BKN,,0.00,316.0,WeatherDisplay:10.37,2013-03-02 16:53:00,
2013-03-02 11:58:00,38.1,29.2,29.54,WNW,285,11.5,11.5,70,0.00,SCT,,0.00,373.0,WeatherDisplay:10.37,2013-03-02 16:58:00,
2013-03-02 12:03:00,38.2,29.3,29.54,WNW,293,6.9,6.9,70,0.00,SCT,,0.00,388.0,WeatherDisplay:10.37,2013-03-02 17:03:00,
2013-03-02 12:08:00,38.4,29.1,29.54,NW,315,11.5,11.5,69,0.00,SCT,,0.00,378.0,WeatherDisplay:10.37,2013-03-02 17:08:00,
2013-03-02 12:13:00,38.5,29.2,29.54,NW,306,13.8,13.8,69,0.00,SCT,,0.00,369.0,WeatherDisplay:10.37,2013-03-02 17:13:00,
2013-03-02 12:18:00,38.5,29.2,29.54,West,281,11.5,11.5,69,0.00,SCT,,0.00,401.0,WeatherDisplay:10.37,2013-03-02 17:18:00,
2013-03-02 12:23:00,38.9,29.6,29.53,NW,319,13.8,13.8,69,0.00,SCT,,0.00,387.0,WeatherDisplay:10.37,2013-03-02 17:23:00,
2013-03-02 12:28:00,38.7,29.0,29.53,WNW,300,19.6,19.6,68,0.00,SCT,,0.00,378.0,WeatherDisplay:10.37,2013-03-02 17:28:00,
2013-03-02 12:33:00,38.6,28.9,29.53,WNW,303,18.4,18.4,68,0.00,SCT,,0.00,378.0,WeatherDisplay:10.37,2013-03-02 17:33:00,
2013-03-02 12:38:00,38.8,29.1,29.53,NNW,337,17.3,17.3,68,0.00,SCT,,0.00,403.0,WeatherDisplay:10.37,2013-03-02 17:38:00,
2013-03-02 12:43:00,38.9,29.6,29.53,WNW,296,19.6,19.6,69,0.00,SCT,,0.00,413.0,WeatherDisplay:10.37,2013-03-02 17:43:00,
2013-03-02 12:48:00,38.8,29.1,29.53,NNW,327,15.0,15.0,68,0.00,SCT,,0.00,396.0,WeatherDisplay:10.37,2013-03-02 17:48:00,
2013-03-02 12:53:00,39.0,29.3,29.52,NW,310,18.4,18.4,68,0.00,SCT,,0.00,376.0,WeatherDisplay:10.37,2013-03-02 17:53:00,
2013-03-02 12:58:00,39.1,29.4,29.52,NW,319,11.5,11.5,68,0.00,SCT,,0.00,353.0,WeatherDisplay:10.37,2013-03-02 17:58:00,
2013-03-02 13:03:00,39.4,29.3,29.52,WNW,302,15.0,15.0,67,0.00,SCT,,0.00,343.0,WeatherDisplay:10.37,2013-03-02 18:03:00,
2013-03-02 13:08:00,39.3,29.3,29.53,WNW,288,17.3,17.3,67,0.00,SCT,,0.00,417.0,WeatherDisplay:10.37,2013-03-02 18:08:00,
2013-03-02 13:13:00,39.4,29.0,29.53,NW,311,11.5,11.5,66,0.00,FEW,,0.00,455.0,WeatherDisplay:10.37,2013-03-02 18:13:00,
2013-03-02 13:18:00,39.7,28.9,29.53,NNW,344,15.0,15.0,65,0.00,SCT,,0.00,410.0,WeatherDisplay:10.37,2013-03-02 18:18:00,
2013-03-02 13:23:00,39.6,29.2,29.52,WNW,291,14.0,14.0,66,0.00,FEW,,0.00,434.0,WeatherDisplay:10.37,2013-03-02 18:23:00,
2013-03-02 13:28:00,39.6,28.8,29.52,WNW,296,11.5,11.5,65,0.00,CLR,,0.00,503.0,WeatherDisplay:10.37,2013-03-02 18:28:00,
2013-03-02 13:33:00,39.8,29.0,29.52,WNW,303,13.8,13.8,65,0.00,CLR,,0.00,529.0,WeatherDisplay:10.37,2013-03-02 18:33:00,
2013-03-02 13:38:00,39.8,29.0,29.52,WNW,298,16.1,16.1,65,0.00,SCT,,0.00,362.0,WeatherDisplay:10.37,2013-03-02 18:38:00,
2013-03-02 13:43:00,39.3,28.9,29.52,NW,310,15.0,15.0,66,0.00,SCT,,0.00,299.0,WeatherDisplay:10.37,2013-03-02 18:43:00,
2013-03-02 13:48:00,39.3,28.9,29.52,WNW,289,15.0,15.0,66,0.00,SCT,,0.00,330.0,WeatherDisplay:10.37,2013-03-02 18:48:00,
2013-03-02 13:53:00,39.4,29.0,29.52,WNW,292,14.0,14.0,66,0.00,FEW,,0.00,394.0,WeatherDisplay:10.37,2013-03-02 18:53:00,
2013-03-02 13:58:00,39.6,28.8,29.52,NW,311,17.3,17.3,65,0.00,CLR,,0.00,475.0,WeatherDisplay:10.37,2013-03-02 18:58:00,
2013-03-02 14:03:00,39.6,28.8,29.52,West,280,17.3,17.3,65,0.00,CLR,,0.00,432.0,WeatherDisplay:10.37,2013-03-02 19:03:00,
2013-03-02 14:08:00,39.7,28.5,29.52,NW,310,18.4,18.4,64,0.00,FEW,,0.00,357.0,WeatherDisplay:10.37,2013-03-02 19:08:00,
2013-03-02 14:13:00,39.6,28.4,29.52,WNW,298,13.8,13.8,64,0.00,SCT,,0.00,313.0,WeatherDisplay:10.37,2013-03-02 19:13:00,
2013-03-02 14:18:00,39.4,28.6,29.52,WNW,285,17.3,17.3,65,0.00,SCT,,0.00,301.0,WeatherDisplay:10.37,2013-03-02 19:18:00,
2013-03-02 14:23:00,39.2,28.4,29.52,WNW,291,17.3,17.3,65,0.00,SCT,,0.00,262.0,WeatherDisplay:10.37,2013-03-02 19:23:00,
2013-03-02 14:28:00,39.0,29.0,29.52,WNW,299,11.5,11.5,67,0.00,SCT,,0.00,218.0,WeatherDisplay:10.37,2013-03-02 19:28:00,
2013-03-02 14:33:00,38.8,28.8,29.52,WNW,298,18.4,18.4,67,0.00,BKN,,0.00,193.0,WeatherDisplay:10.37,2013-03-02 19:33:00,
2013-03-02 14:38:00,38.7,28.7,29.52,WNW,301,11.0,11.0,67,0.00,BKN,,0.00,183.0,WeatherDisplay:10.37,2013-03-02 19:38:00,
2013-03-02 14:43:00,38.7,29.0,29.52,NW,315,6.9,6.9,68,0.00,BKN,,0.00,179.0,WeatherDisplay:10.37,2013-03-02 19:43:00,
2013-03-02 14:48:00,38.8,28.8,29.52,WNW,290,9.2,9.2,67,0.00,BKN,,0.00,171.0,WeatherDisplay:10.37,2013-03-02 19:48:00,
2013-03-02 14:53:00,39.0,28.6,29.53,West,279,6.9,6.9,66,0.00,BKN,,0.00,158.0,WeatherDisplay:10.37,2013-03-02 19:53:00,
2013-03-02 14:58:00,39.0,28.6,29.53,WNW,290,11.5,11.5,66,0.00,BKN,,0.00,142.0,WeatherDisplay:10.37,2013-03-02 19:58:00,
2013-03-02 15:03:00,38.8,28.4,29.53,WNW,288,9.2,9.2,66,0.00,BKN,,0.00,128.0,WeatherDisplay:10.37,2013-03-02 20:03:00,
2013-03-02 15:08:00,38.8,28.4,29.53,WNW,301,8.1,8.1,66,0.00,BKN,,0.00,120.0,WeatherDisplay:10.37,2013-03-02 20:08:00,
2013-03-02 15:13:00,38.6,28.6,29.53,WNW,285,10.4,10.4,67,0.00,BKN,,0.00,107.0,WeatherDisplay:10.37,2013-03-02 20:13:00,
2013-03-02 15:18:00,38.4,28.4,29.53,WNW,293,9.2,9.2,67,0.00,BKN,,0.00,102.0,WeatherDisplay:10.37,2013-03-02 20:18:00,
2013-03-02 15:23:00,38.2,28.6,29.53,NW,306,11.5,11.5,68,0.00,BKN,,0.00,102.0,WeatherDisplay:10.37,2013-03-02 20:23:00,
2013-03-02 15:28:00,38.0,28.7,29.53,West,279,13.8,13.8,69,0.00,BKN,,0.00,100.0,WeatherDisplay:10.37,2013-03-02 20:28:00,
2013-03-02 15:33:00,37.7,28.8,29.53,West,272,8.1,8.1,70,0.00,BKN,,0.00,104.0,WeatherDisplay:10.37,2013-03-02 20:33:00,
2013-03-02 15:38:00,37.5,28.9,29.53,WNW,283,9.2,9.2,71,0.00,BKN,,0.00,107.0,WeatherDisplay:10.37,2013-03-02 20:38:00,
2013-03-02 15:43:00,37.4,28.9,29.53,WNW,288,12.7,12.7,71,0.00,BKN,,0.00,105.0,WeatherDisplay:10.37,2013-03-02 20:43:00,
2013-03-02 15:48:00,37.3,28.4,29.53,WNW,293,10.4,10.4,70,0.00,BKN,,0.00,97.0,WeatherDisplay:10.37,2013-03-02 20:48:00,
2013-03-02 15:53:00,37.3,28.8,29.54,WNW,302,11.5,11.5,71,0.00,BKN,,0.00,86.0,WeatherDisplay:10.37,2013-03-02 20:53:00,
2013-03-02 15:58:00,37.1,28.9,29.54,WNW,292,11.5,11.5,72,0.00,BKN,,0.00,76.0,WeatherDisplay:10.37,2013-03-02 20:58:00,
2013-03-02 16:03:00,37.1,28.9,29.54,WNW,296,6.9,6.9,72,0.00,BKN,,0.00,70.0,WeatherDisplay:10.37,2013-03-02 21:03:00,
2013-03-02 16:08:00,37.1,28.6,29.54,NW,308,7.0,7.0,71,0.00,BKN,,0.00,62.0,WeatherDisplay:10.37,2013-03-02 21:08:00,
2013-03-02 16:13:00,37.0,28.5,29.54,NW,308,11.5,11.5,71,0.00,BKN,,0.00,54.0,WeatherDisplay:10.37,2013-03-02 21:13:00,
2013-03-02 16:18:00,37.0,28.5,29.54,WNW,282,13.0,13.0,71,0.00,BKN,,0.00,54.0,WeatherDisplay:10.37,2013-03-02 21:18:00,
2013-03-02 16:23:00,36.9,28.7,29.54,NNW,338,5.8,5.8,72,0.00,BKN,,0.00,58.0,WeatherDisplay:10.37,2013-03-02 21:23:00,
2013-03-02 16:28:00,36.7,28.5,29.54,NW,306,14.0,14.0,72,0.00,BKN,,0.00,60.0,WeatherDisplay:10.37,2013-03-02 21:28:00,
2013-03-02 16:33:00,36.6,29.1,29.54,NW,312,8.1,8.1,74,0.00,BKN,,0.00,54.0,WeatherDisplay:10.37,2013-03-02 21:33:00,
2013-03-02 16:38:00,36.4,28.9,29.54,WSW,253,7.0,7.0,74,0.00,BKN,,0.00,47.0,WeatherDisplay:10.37,2013-03-02 21:38:00,
2013-03-02 16:43:00,36.3,28.8,29.54,WNW,300,4.6,4.6,74,0.00,BKN,,0.00,39.0,WeatherDisplay:10.37,2013-03-02 21:43:00,
2013-03-02 16:49:00,36.2,29.0,29.54,West,279,4.6,4.6,75,0.00,BKN,,0.00,35.0,WeatherDisplay:10.37,2013-03-02 21:49:00,
2013-03-02 16:54:00,36.1,29.3,29.55,WNW,285,1.0,1.0,76,0.00,BKN,,0.00,32.0,WeatherDisplay:10.37,2013-03-02 21:54:00,
2013-03-02 16:59:00,36.0,29.5,29.55,WNW,285,3.5,3.5,77,0.00,BKN,,0.00,25.0,WeatherDisplay:10.37,2013-03-02 21:59:00,
2013-03-02 17:04:00,35.9,29.4,29.55,WNW,285,3.5,3.5,77,0.00,BKN,,0.00,21.0,WeatherDisplay:10.37,2013-03-02 22:04:00,
2013-03-02 17:09:00,35.8,29.3,29.55,West,275,3.5,3.5,77,0.00,BKN,,0.00,16.0,WeatherDisplay:10.37,2013-03-02 22:09:00,
2013-03-02 17:14:00,35.7,29.2,29.55,WNW,295,11.5,11.5,77,0.00,BKN,,0.00,12.0,WeatherDisplay:10.37,2013-03-02 22:14:00,
2013-03-02 17:19:00,35.5,29.6,29.55,WNW,299,2.3,2.3,79,0.00,BKN,,0.00,9.0,WeatherDisplay:10.37,2013-03-02 22:19:00,
2013-03-02 17:24:00,35.2,29.3,29.56,WNW,284,6.9,6.9,79,0.00,BKN,,0.00,7.0,WeatherDisplay:10.37,2013-03-02 22:24:00,
2013-03-02 17:29:00,34.9,29.7,29.56,West,275,4.6,4.6,81,0.00,SCT,,0.00,5.0,WeatherDisplay:10.37,2013-03-02 22:29:00,
2013-03-02 17:34:00,34.4,29.8,29.56,West,273,1.2,1.2,83,0.00,CLR,,0.00,0.0,WeatherDisplay:10.37,2013-03-02 22:34:00,
2013-03-02 17:39:00,34.2,29.9,29.56,WNW,286,4.6,4.6,84,0.00,CLR,,0.00,0.0,WeatherDisplay:10.37,2013-03-02 22:39:00,
2013-03-02 17:44:00,33.8,30.1,29.56,WNW,286,2.3,2.3,86,0.00,CLR,,0.00,0.0,WeatherDisplay:10.37,2013-03-02 22:44:00,
2013-03-02 17:49:00,33.5,30.3,29.56,WNW,286,0.0,0.0,88,0.00,CLR,,0.00,0.0,WeatherDisplay:10.37,2013-03-02 22:49:00,
2013-03-02 17:54:00,33.3,30.4,29.57,WNW,286,1.2,1.2,89,0.00,CLR,,0.00,0.0,WeatherDisplay:10.37,2013-03-02 22:54:00,
2013-03-02 17:59:00,33.2,30.3,29.57,WNW,286,0.0,0.0,89,0.00,CLR,,0.00,0.0,WeatherDisplay:10.37,2013-03-02 22:59:00,
2013-03-02 18:04:00,33.1,30.5,29.57,WNW,286,0.0,0.0,90,0.00,CLR,,0.00,0.0,WeatherDisplay:10.37,2013-03-02 23:04:00,
2013-03-02 18:09:00,33.0,30.7,29.58,WNW,286,2.3,0.0,91,0.00,CLR,,0.00,0.0,WeatherDisplay:10.37,2013-03-02 23:09:00,
2013-03-02 18:14:00,32.9,30.6,29.58,WNW,286,0.0,0.0,91,0.00,CLR,,0.00,0.0,WeatherDisplay:10.37,2013-03-02 23:14:00,
2013-03-02 18:19:00,32.8,30.5,29.58,WNW,286,0.0,0.0,91,0.00,CLR,,0.00,0.0,WeatherDisplay:10.37,2013-03-02 23:19:00,
2013-03-02 18:24:00,32.8,30.5,29.58,WNW,286,0.0,0.0,91,0.00,CLR,,0.00,0.0,WeatherDisplay:10.37,2013-03-02 23:24:00,
2013-03-02 18:29:00,32.8,30.5,29.58,WNW,286,0.0,0.0,91,0.00,CLR,,0.00,0.0,WeatherDisplay:10.37,2013-03-02 23:29:00,
2013-03-02 18:34:00,32.7,30.6,29.58,WNW,286,0.0,0.0,92,0.00,CLR,,0.00,0.0,WeatherDisplay:10.37,2013-03-02 23:34:00,
2013-03-02 18:39:00,32.7,30.6,29.58,WNW,286,0.0,0.0,92,0.00,CLR,,0.00,0.0,WeatherDisplay:10.37,2013-03-02 23:39:00,
2013-03-02 18:44:00,32.6,30.5,29.58,WNW,286,0.0,0.0,92,0.00,CLR,,0.00,0.0,WeatherDisplay:10.37,2013-03-02 23:44:00,
2013-03-02 18:49:00,32.6,30.8,29.58,WNW,286,0.0,0.0,93,0.00,CLR,,0.00,0.0,WeatherDisplay:10.37,2013-03-02 23:49:00,
2013-03-02 18:54:00,32.5,30.7,29.58,WNW,286,0.0,0.0,93,0.00,CLR,,0.00,0.0,WeatherDisplay:10.37,2013-03-02 23:54:00,
2013-03-02 18:59:00,32.5,30.7,29.58,WNW,286,0.0,0.0,93,0.00,CLR,,0.00,0.0,WeatherDisplay:10.37,2013-03-02 23:59:00,
2013-03-02 19:04:00,32.5,30.7,29.58,WNW,286,0.0,0.0,93,0.00,CLR,,0.00,0.0,WeatherDisplay:10.37,2013-03-03 00:04:00,
2013-03-02 19:09:00,32.4,30.6,29.58,WNW,286,0.0,0.0,93,0.00,CLR,,0.00,0.0,WeatherDisplay:10.37,2013-03-03 00:09:00,
2013-03-02 19:14:00,32.5,30.7,29.58,WNW,286,0.0,0.0,93,0.00,CLR,,0.00,0.0,WeatherDisplay:10.37,2013-03-03 00:14:00,
2013-03-02 19:19:00,32.4,30.6,29.58,WNW,286,0.0,0.0,93,0.00,CLR,,0.00,0.0,WeatherDisplay:10.37,2013-03-03 00:19:00,
2013-03-02 19:24:00,32.4,30.6,29.57,WNW,286,3.5,0.0,93,0.00,CLR,,0.00,0.0,WeatherDisplay:10.37,2013-03-03 00:24:00,
2013-03-02 19:29:00,32.4,30.6,29.57,WNW,286,3.5,3.5,93,0.00,CLR,,0.00,0.0,WeatherDisplay:10.37,2013-03-03 00:29:00,
2013-03-02 19:34:00,32.5,30.4,29.57,West,272,6.9,6.9,92,0.00,CLR,,0.00,0.0,WeatherDisplay:10.37,2013-03-03 00:34:00,
2013-03-02 19:39:00,32.6,30.3,29.57,WNW,283,2.3,2.3,91,0.00,CLR,,0.00,0.0,WeatherDisplay:10.37,2013-03-03 00:39:00,
2013-03-02 19:44:00,32.7,30.4,29.57,WNW,288,1.2,1.2,91,0.00,CLR,,0.00,0.0,WeatherDisplay:10.37,2013-03-03 00:44:00,
2013-03-02 19:49:00,32.6,30.3,29.57,WNW,288,0.0,0.0,91,0.00,CLR,,0.00,0.0,WeatherDisplay:10.37,2013-03-03 00:49:00,
2013-03-02 19:54:00,32.5,30.2,29.57,WNW,288,3.5,3.5,91,0.00,CLR,,0.00,0.0,WeatherDisplay:10.37,2013-03-03 00:54:00,
2013-03-02 19:59:00,32.5,30.2,29.57,WNW,288,2.3,2.3,91,0.00,CLR,,0.00,0.0,WeatherDisplay:10.37,2013-03-03 00:59:00,
2013-03-02 20:04:00,32.5,30.2,29.57,WNW,288,1.2,0.0,91,0.00,CLR,,0.00,0.0,WeatherDisplay:10.37,2013-03-03 01:04:00,
2013-03-02 20:09:00,32.5,30.2,29.57,WNW,287,3.5,3.5,91,0.00,CLR,,0.00,0.0,WeatherDisplay:10.37,2013-03-03 01:09:00,
2013-03-02 20:14:00,32.5,30.2,29.57,WNW,287,3.5,3.5,91,0.00,CLR,,0.00,0.0,WeatherDisplay:10.37,2013-03-03 01:14:00,
2013-03-02 20:19:00,32.6,30.0,29.57,WNW,287,2.3,2.3,90,0.00,CLR,,0.00,0.0,WeatherDisplay:10.37,2013-03-03 01:19:00,
2013-03-02 20:24:00,32.6,30.0,29.57,WNW,287,1.0,1.0,90,0.00,CLR,,0.00,0.0,WeatherDisplay:10.37,2013-03-03 01:24:00,
2013-03-02 20:29:00,32.6,30.0,29.57,WNW,287,0.0,0.0,90,0.00,CLR,,0.00,0.0,WeatherDisplay:10.37,2013-03-03 01:29:00,
2013-03-02 20:34:00,32.6,30.0,29.57,WNW,287,0.0,1.0,90,0.00,CLR,,0.00,0.0,WeatherDisplay:10.37,2013-03-03 01:34:00,
2013-03-02 20:39:00,32.6,30.0,29.57,WNW,287,2.3,2.3,90,0.00,CLR,,0.00,0.0,WeatherDisplay:10.37,2013-03-03 01:39:00,
2013-03-02 20:44:00,32.5,29.9,29.57,WNW,287,1.2,0.0,90,0.00,CLR,,0.00,0.0,WeatherDisplay:10.37,2013-03-03 01:44:00,
2013-03-02 20:49:00,32.5,30.2,29.57,WNW,287,1.2,0.0,91,0.00,CLR,,0.00,0.0,WeatherDisplay:10.37,2013-03-03 01:49:00,
2013-03-02 20:54:00,32.5,30.2,29.57,WNW,287,2.3,2.3,91,0.00,CLR,,0.00,0.0,WeatherDisplay:10.37,2013-03-03 01:54:00,
2013-03-02 20:59:00,32.5,29.9,29.57,WNW,287,3.5,3.5,90,0.00,CLR,,0.00,0.0,WeatherDisplay:10.37,2013-03-03 01:59:00,
2013-03-02 21:04:00,32.5,29.9,29.57,WNW,287,1.2,1.2,90,0.00,CLR,,0.00,0.0,WeatherDisplay:10.37,2013-03-03 02:04:00,
2013-03-02 21:09:00,32.4,30.1,29.56,WNW,287,2.3,2.3,91,0.00,CLR,,0.00,0.0,WeatherDisplay:10.37,2013-03-03 02:09:00,
2013-03-02 21:14:00,32.3,30.0,29.56,WNW,287,0.0,0.0,91,0.00,CLR,,0.00,0.0,WeatherDisplay:10.37,2013-03-03 02:14:00,
2013-03-02 21:19:00,32.2,30.1,29.56,WNW,287,2.0,2.0,92,0.00,CLR,,0.00,0.0,WeatherDisplay:10.37,2013-03-03 02:19:00,
2013-03-02 21:24:00,32.1,30.0,29.56,WNW,287,1.0,0.0,92,0.00,CLR,,0.00,0.0,WeatherDisplay:10.37,2013-03-03 02:24:00,
2013-03-02 21:29:00,32.1,30.0,29.56,WNW,287,0.0,0.0,92,0.00,CLR,,0.00,0.0,WeatherDisplay:10.37,2013-03-03 02:29:00,
2013-03-02 21:34:00,32.1,30.0,29.56,WNW,287,2.3,0.0,92,0.00,CLR,,0.00,0.0,WeatherDisplay:10.37,2013-03-03 02:34:00,
2013-03-02 21:39:00,32.1,30.0,29.56,WNW,287,1.2,0.0,92,0.00,CLR,,0.00,0.0,WeatherDisplay:10.37,2013-03-03 02:39:00,
2013-03-02 21:44:00,32.1,30.0,29.56,WNW,287,0.0,0.0,92,0.00,CLR,,0.00,0.0,WeatherDisplay:10.37,2013-03-03 02:44:00,
2013-03-02 21:49:00,32.1,30.3,29.56,WNW,287,0.0,0.0,93,0.00,CLR,,0.00,0.0,WeatherDisplay:10.37,2013-03-03 02:49:00,
2013-03-02 21:54:00,32.1,30.3,29.56,WNW,287,0.0,0.0,93,0.00,CLR,,0.00,0.0,WeatherDisplay:10.37,2013-03-03 02:54:00,
2013-03-02 21:59:00,32.1,30.3,29.56,WNW,287,0.0,0.0,93,0.00,CLR,,0.00,0.0,WeatherDisplay:10.37,2013-03-03 02:59:00,
2013-03-02 22:04:00,32.1,30.3,29.56,WNW,287,0.0,0.0,93,0.00,CLR,,0.00,0.0,WeatherDisplay:10.37,2013-03-03 03:04:00,
2013-03-02 22:09:00,32.1,30.3,29.56,WNW,287,0.0,0.0,93,0.00,CLR,,0.00,0.0,WeatherDisplay:10.37,2013-03-03 03:09:00,
2013-03-02 22:14:00,32.1,30.3,29.56,WNW,287,0.0,0.0,93,0.00,CLR,,0.00,0.0,WeatherDisplay:10.37,2013-03-03 03:14:00,
2013-03-02 22:19:00,32.1,30.3,29.56,WNW,287,0.0,0.0,93,0.00,CLR,,0.00,0.0,WeatherDisplay:10.37,2013-03-03 03:19:00,
2013-03-02 22:24:00,32.1,30.3,29.56,WNW,287,0.0,0.0,93,0.00,CLR,,0.00,0.0,WeatherDisplay:10.37,2013-03-03 03:24:00,
2013-03-02 22:29:00,32.1,30.3,29.56,WNW,287,0.0,0.0,93,0.00,CLR,,0.00,0.0,WeatherDisplay:10.37,2013-03-03 03:29:00,
2013-03-02 22:34:00,32.0,30.2,29.56,WNW,287,0.0,0.0,93,0.00,CLR,,0.00,0.0,WeatherDisplay:10.37,2013-03-03 03:34:00,
2013-03-02 22:39:00,32.0,30.2,29.56,WNW,287,0.0,0.0,93,0.00,CLR,,0.00,0.0,WeatherDisplay:10.37,2013-03-03 03:39:00,
2013-03-02 22:44:00,32.0,30.2,29.56,WNW,287,0.0,0.0,93,0.00,CLR,,0.00,0.0,WeatherDisplay:10.37,2013-03-03 03:44:00,
2013-03-02 22:49:00,31.9,30.1,29.56,WNW,287,2.3,2.3,93,0.00,CLR,,0.00,0.0,WeatherDisplay:10.37,2013-03-03 03:49:00,
2013-03-02 22:54:00,31.9,30.1,29.56,WNW,287,1.2,0.0,93,0.00,CLR,,0.00,0.0,WeatherDisplay:10.37,2013-03-03 03:54:00,
2013-03-02 22:59:00,31.9,30.1,29.56,WNW,287,2.3,2.3,93,0.00,CLR,,0.00,0.0,WeatherDisplay:10.37,2013-03-03 03:59:00,
2013-03-02 23:04:00,31.9,30.1,29.56,WNW,287,1.2,0.0,93,0.00,CLR,,0.00,0.0,WeatherDisplay:10.37,2013-03-03 04:04:00,
2013-03-02 23:10:00,31.9,30.1,29.55,WNW,287,0.0,0.0,93,0.00,CLR,,0.00,0.0,WeatherDisplay:10.37,2013-03-03 04:10:00,
2013-03-02 23:15:00,31.9,30.4,29.55,WNW,287,0.0,0.0,94,0.00,CLR,,0.00,0.0,WeatherDisplay:10.37,2013-03-03 04:15:00,
2013-03-02 23:20:00,31.8,30.3,29.55,WNW,287,0.0,1.0,94,0.00,CLR,,0.00,0.0,WeatherDisplay:10.37,2013-03-03 04:20:00,
2013-03-02 23:25:00,31.8,30.3,29.55,WNW,287,0.0,1.0,94,0.00,CLR,,0.00,0.0,WeatherDisplay:10.37,2013-03-03 04:25:00,
2013-03-02 23:30:00,31.7,30.2,29.55,WNW,287,0.0,0.0,94,0.00,CLR,,0.00,0.0,WeatherDisplay:10.37,2013-03-03 04:30:00,
2013-03-02 23:35:00,31.7,30.2,29.55,WNW,287,0.0,0.0,94,0.00,CLR,,0.00,0.0,WeatherDisplay:10.37,2013-03-03 04:35:00,
2013-03-02 23:40:00,31.7,30.2,29.55,WNW,287,0.0,0.0,94,0.00,CLR,,0.00,0.0,WeatherDisplay:10.37,2013-03-03 04:40:00,
2013-03-02 23:45:00,31.7,30.2,29.55,WNW,287,3.5,3.5,94,0.00,CLR,,0.00,0.0,WeatherDisplay:10.37,2013-03-03 04:45:00,
2013-03-02 23:50:00,31.7,30.2,29.55,WNW,287,0.0,0.0,94,0.00,CLR,,0.00,0.0,WeatherDisplay:10.37,2013-03-03 04:50:00,
2013-03-02 23:55:00,31.7,30.2,29.54,WNW,287,0.0,0.0,94,0.00,CLR,,0.00,0.0,WeatherDisplay:10.37,2013-03-03 04:55:00,